11/07/2024 09:45:00,0.303
11/07/2024 10:00:00,0.303
11/07/2024 10:15:00,0.302
11/07/2024 10:30:00,0.303
11/07/2024 10:45:00,0.303
11/07/2024 11:00:00,0.303
11/07/2024 11:15:00,0.302
11/07/2024 11:30:00,0.302
11/07/2024 11:45:00,0.301
11/07/2024 12:00:00,0.303
11/07/2024 12:15:00,0.302
11/07/2024 12:30:00,0.299
11/07/2024 12:45:00,0.301
11/07/2024 13:00:00,0.303
11/07/2024 13:15:00,0.303
11/07/2024 13:30:00,0.302
11/07/2024 13:45:00,0.302
11/07/2024 14:00:00,0.302
11/07/2024 14:15:00,0.302
11/07/2024 14:30:00,0.302
11/07/2024 14:45:00,0.3
11/07/2024 15:00:00,0.3
11/07/2024 15:15:00,0.3
11/07/2024 15:30:00,0.301
11/07/2024 15:45:00,0.3
11/07/2024 16:00:00,0.3
11/07/2024 16:15:00,0.298
11/07/2024 16:30:00,0.299
11/07/2024 16:45:00,0.302
11/07/2024 17:00:00,0.3
11/07/2024 17:15:00,0.3
11/07/2024 17:30:00,0.3
11/07/2024 17:45:00,0.299
11/07/2024 18:00:00,0.3
11/07/2024 18:15:00,0.299
11/07/2024 18:30:00,0.299
11/07/2024 18:45:00,0.3
11/07/2024 19:00:00,0.299
11/07/2024 19:15:00,0.3
11/07/2024 19:30:00,0.299
11/07/2024 19:45:00,0.299
11/07/2024 20:00:00,0.299
11/07/2024 20:15:00,0.299
11/07/2024 20:30:00,0.299
11/07/2024 20:45:00,0.298
11/07/2024 21:00:00,0.298
11/07/2024 21:15:00,0.298
11/07/2024 21:30:00,0.299
11/07/2024 21:45:00,0.298
11/07/2024 22:00:00,0.298
11/07/2024 22:15:00,0.298
11/07/2024 22:30:00,0.298
11/07/2024 22:45:00,0.298
11/07/2024 23:00:00,0.297
11/07/2024 23:15:00,0.297
11/07/2024 23:30:00,0.297
11/07/2024 23:45:00,0.297
12/07/2024 00:00:00,0.297
12/07/2024 00:15:00,0.297
12/07/2024 00:30:00,0.297
12/07/2024 00:45:00,0.297
12/07/2024 01:00:00,0.297
12/07/2024 01:15:00,0.297
12/07/2024 01:30:00,0.297
12/07/2024 01:45:00,0.297
12/07/2024 02:00:00,0.297
12/07/2024 02:15:00,0.297
12/07/2024 02:30:00,0.297
12/07/2024 02:45:00,0.296
12/07/2024 03:00:00,0.296
12/07/2024 03:15:00,0.296
12/07/2024 03:30:00,0.296
12/07/2024 03:45:00,0.296
12/07/2024 04:00:00,0.296
12/07/2024 04:15:00,0.296
12/07/2024 04:30:00,0.296
12/07/2024 04:45:00,0.296
12/07/2024 05:00:00,0.296
12/07/2024 05:15:00,0.296
12/07/2024 05:30:00,0.296
12/07/2024 05:45:00,0.295
12/07/2024 06:00:00,0.296
12/07/2024 06:15:00,0.295
12/07/2024 06:30:00,0.295
12/07/2024 06:45:00,0.295
12/07/2024 07:00:00,0.295
12/07/2024 07:15:00,0.296
12/07/2024 07:30:00,0.295
12/07/2024 07:45:00,0.295
12/07/2024 08:00:00,0.294
12/07/2024 08:15:00,0.296
12/07/2024 08:30:00,0.295
12/07/2024 08:45:00,0.294
12/07/2024 09:00:00,0.295
12/07/2024 09:15:00,0.294
12/07/2024 09:30:00,0.293
12/07/2024 09:45:00,0.292
12/07/2024 10:00:00,0.293
12/07/2024 10:15:00,0.295
12/07/2024 10:30:00,0.295
12/07/2024 10:45:00,0.296
12/07/2024 11:00:00,0.3
12/07/2024 11:15:00,0.296
12/07/2024 11:30:00,0.295
12/07/2024 11:45:00,0.296
12/07/2024 12:00:00,0.293
12/07/2024 12:15:00,0.294
12/07/2024 12:30:00,0.295
12/07/2024 12:45:00,0.293
12/07/2024 13:00:00,0.297
12/07/2024 13:15:00,0.295
12/07/2024 13:30:00,0.295
12/07/2024 13:45:00,0.296
12/07/2024 14:00:00,0.296
12/07/2024 14:15:00,0.295
12/07/2024 14:30:00,0.299
12/07/2024 14:45:00,0.297
12/07/2024 15:00:00,0.292
12/07/2024 15:15:00,0.297
12/07/2024 15:30:00,0.292
12/07/2024 15:45:00,0.295
12/07/2024 16:00:00,0.293
12/07/2024 16:15:00,0.295
12/07/2024 16:30:00,0.293
12/07/2024 16:45:00,0.294
12/07/2024 17:00:00,0.295
12/07/2024 17:15:00,0.294
12/07/2024 17:30:00,0.295
12/07/2024 17:45:00,0.295
12/07/2024 18:00:00,0.294
12/07/2024 18:15:00,0.295
12/07/2024 18:30:00,0.293
12/07/2024 18:45:00,0.294
12/07/2024 19:00:00,0.294
12/07/2024 19:15:00,0.295
12/07/2024 19:30:00,0.294
12/07/2024 19:45:00,0.294
12/07/2024 20:00:00,0.293
12/07/2024 20:15:00,0.293
12/07/2024 20:30:00,0.293
12/07/2024 20:45:00,0.293
12/07/2024 21:00:00,0.293
12/07/2024 21:15:00,0.293
12/07/2024 21:30:00,0.293
12/07/2024 21:45:00,0.293
12/07/2024 22:00:00,0.293
12/07/2024 22:15:00,0.293
12/07/2024 22:30:00,0.293
12/07/2024 22:45:00,0.292
12/07/2024 23:00:00,0.293
12/07/2024 23:15:00,0.293
12/07/2024 23:30:00,0.292
12/07/2024 23:45:00,0.292
13/07/2024 00:00:00,0.292
13/07/2024 00:15:00,0.292
13/07/2024 00:30:00,0.292
13/07/2024 00:45:00,0.292
13/07/2024 01:00:00,0.292
13/07/2024 01:15:00,0.293
13/07/2024 01:30:00,0.292
13/07/2024 01:45:00,0.292
13/07/2024 02:00:00,0.292
13/07/2024 02:15:00,0.292
13/07/2024 02:30:00,0.292
13/07/2024 02:45:00,0.292
13/07/2024 03:00:00,0.292
13/07/2024 03:15:00,0.292
13/07/2024 03:30:00,0.292
13/07/2024 03:45:00,0.292
13/07/2024 04:00:00,0.292
13/07/2024 04:15:00,0.292
13/07/2024 04:30:00,0.291
13/07/2024 04:45:00,0.292
13/07/2024 05:00:00,0.292
13/07/2024 05:15:00,0.291
13/07/2024 05:30:00,0.292
13/07/2024 05:45:00,0.291
13/07/2024 06:00:00,0.291
13/07/2024 06:15:00,0.292
13/07/2024 06:30:00,0.292
13/07/2024 06:45:00,0.291
13/07/2024 07:00:00,0.292
13/07/2024 07:15:00,0.292
13/07/2024 07:30:00,0.292
13/07/2024 07:45:00,0.292
13/07/2024 08:00:00,0.291
13/07/2024 08:15:00,0.292
13/07/2024 08:30:00,0.293
13/07/2024 08:45:00,0.292
13/07/2024 09:00:00,0.292
13/07/2024 09:15:00,0.293
13/07/2024 09:30:00,0.292
13/07/2024 09:45:00,0.293
13/07/2024 10:00:00,0.293
13/07/2024 10:15:00,0.292
13/07/2024 10:30:00,0.292
13/07/2024 10:45:00,0.293
13/07/2024 11:00:00,0.293
13/07/2024 11:15:00,0.292
13/07/2024 11:30:00,0.292
13/07/2024 11:45:00,0.292
13/07/2024 12:00:00,0.293
13/07/2024 12:15:00,0.293
13/07/2024 12:30:00,0.293
13/07/2024 12:45:00,0.294
13/07/2024 13:00:00,0.294
13/07/2024 13:15:00,0.293
13/07/2024 13:30:00,0.294
13/07/2024 13:45:00,0.294
13/07/2024 14:00:00,0.294
13/07/2024 14:15:00,0.293
13/07/2024 14:30:00,0.294
13/07/2024 14:45:00,0.294
13/07/2024 15:00:00,0.294
13/07/2024 15:15:00,0.294
13/07/2024 15:30:00,0.294
13/07/2024 15:45:00,0.294
13/07/2024 16:00:00,0.294
13/07/2024 16:15:00,0.294
13/07/2024 16:30:00,0.294
13/07/2024 16:45:00,0.294
13/07/2024 17:00:00,0.294
13/07/2024 17:15:00,0.294
13/07/2024 17:30:00,0.294
13/07/2024 17:45:00,0.294
13/07/2024 18:00:00,0.295
13/07/2024 18:15:00,0.295
13/07/2024 18:30:00,0.295
13/07/2024 18:45:00,0.295
13/07/2024 19:00:00,0.295
13/07/2024 19:15:00,0.295
13/07/2024 19:30:00,0.295
13/07/2024 19:45:00,0.295
13/07/2024 20:00:00,0.296
13/07/2024 20:15:00,0.296
13/07/2024 20:30:00,0.295
13/07/2024 20:45:00,0.296
13/07/2024 21:00:00,0.296
13/07/2024 21:15:00,0.296
13/07/2024 21:30:00,0.295
13/07/2024 21:45:00,0.296
13/07/2024 22:00:00,0.296
13/07/2024 22:15:00,0.297
13/07/2024 22:30:00,0.297
13/07/2024 22:45:00,0.296
13/07/2024 23:00:00,0.297
13/07/2024 23:15:00,0.297
13/07/2024 23:30:00,0.297
13/07/2024 23:45:00,0.297
14/07/2024 00:00:00,0.297
14/07/2024 00:15:00,0.298
14/07/2024 00:30:00,0.298
14/07/2024 00:45:00,0.298
14/07/2024 01:00:00,0.298
14/07/2024 01:15:00,0.298
14/07/2024 01:30:00,0.298
14/07/2024 01:45:00,0.299
14/07/2024 02:00:00,0.299
14/07/2024 02:15:00,0.299
14/07/2024 02:30:00,0.299
14/07/2024 02:45:00,0.3
14/07/2024 03:00:00,0.299
14/07/2024 03:15:00,0.3
14/07/2024 03:30:00,0.3
14/07/2024 03:45:00,0.301
14/07/2024 04:00:00,0.301
14/07/2024 04:15:00,0.302
14/07/2024 04:30:00,0.303
14/07/2024 04:45:00,0.303
14/07/2024 05:00:00,0.304
14/07/2024 05:15:00,0.304
14/07/2024 05:30:00,0.305
14/07/2024 05:45:00,0.305
14/07/2024 06:00:00,0.306
14/07/2024 06:15:00,0.305
14/07/2024 06:30:00,0.306
14/07/2024 06:45:00,0.307
14/07/2024 07:00:00,0.307
14/07/2024 07:15:00,0.308
14/07/2024 07:30:00,0.309
14/07/2024 07:45:00,0.309
14/07/2024 08:00:00,0.309
14/07/2024 08:15:00,0.311
14/07/2024 08:30:00,0.31
14/07/2024 08:45:00,0.312
14/07/2024 09:00:00,0.313
14/07/2024 09:15:00,0.312
14/07/2024 09:30:00,0.313
14/07/2024 09:45:00,0.313
14/07/2024 10:00:00,0.313
14/07/2024 10:15:00,0.314
14/07/2024 10:30:00,0.314
14/07/2024 10:45:00,0.314
14/07/2024 11:00:00,0.315
14/07/2024 11:15:00,0.315
14/07/2024 11:30:00,0.315
14/07/2024 11:45:00,0.315
14/07/2024 12:00:00,0.314
14/07/2024 12:15:00,0.315
14/07/2024 12:30:00,0.314
14/07/2024 12:45:00,0.314
14/07/2024 13:00:00,0.315
14/07/2024 13:15:00,0.314
14/07/2024 13:30:00,0.314
14/07/2024 13:45:00,0.314
14/07/2024 14:00:00,0.315
14/07/2024 14:15:00,0.314
14/07/2024 14:30:00,0.315
14/07/2024 14:45:00,0.314
14/07/2024 15:00:00,0.314
14/07/2024 15:15:00,0.313
14/07/2024 15:30:00,0.313
14/07/2024 15:45:00,0.313
14/07/2024 16:00:00,0.313
14/07/2024 16:15:00,0.313
14/07/2024 16:30:00,0.313
14/07/2024 16:45:00,0.313
14/07/2024 17:00:00,0.312
14/07/2024 17:15:00,0.312
14/07/2024 17:30:00,0.312
14/07/2024 17:45:00,0.311
14/07/2024 18:00:00,0.311
14/07/2024 18:15:00,0.311
14/07/2024 18:30:00,0.311
14/07/2024 18:45:00,0.31
14/07/2024 19:00:00,0.31
14/07/2024 19:15:00,0.31
14/07/2024 19:30:00,0.31
14/07/2024 19:45:00,0.309
14/07/2024 20:00:00,0.309
14/07/2024 20:15:00,0.309
14/07/2024 20:30:00,0.309
14/07/2024 20:45:00,0.309
14/07/2024 21:00:00,0.308
14/07/2024 21:15:00,0.308
14/07/2024 21:30:00,0.308
14/07/2024 21:45:00,0.308
14/07/2024 22:00:00,0.307
14/07/2024 22:15:00,0.307
14/07/2024 22:30:00,0.307
14/07/2024 22:45:00,0.307
14/07/2024 23:00:00,0.307
14/07/2024 23:15:00,0.306
14/07/2024 23:30:00,0.306
14/07/2024 23:45:00,0.306
15/07/2024 00:00:00,0.306
15/07/2024 00:15:00,0.306
15/07/2024 00:30:00,0.306
15/07/2024 00:45:00,0.305
15/07/2024 01:00:00,0.306
15/07/2024 01:15:00,0.305
15/07/2024 01:30:00,0.305
15/07/2024 01:45:00,0.305
15/07/2024 02:00:00,0.305
15/07/2024 02:15:00,0.304
15/07/2024 02:30:00,0.304
15/07/2024 02:45:00,0.304
15/07/2024 03:00:00,0.304
15/07/2024 03:15:00,0.304
15/07/2024 03:30:00,0.304
15/07/2024 03:45:00,0.304
15/07/2024 04:00:00,0.304
15/07/2024 04:15:00,0.304
15/07/2024 04:30:00,0.303
15/07/2024 04:45:00,0.303
15/07/2024 05:00:00,0.303
15/07/2024 05:15:00,0.303
15/07/2024 05:30:00,0.303
15/07/2024 05:45:00,0.303
15/07/2024 06:00:00,0.302
15/07/2024 06:15:00,0.302
15/07/2024 06:30:00,0.302
15/07/2024 06:45:00,0.302
15/07/2024 07:00:00,0.303
15/07/2024 07:15:00,0.301
15/07/2024 07:30:00,0.302
15/07/2024 07:45:00,0.302
15/07/2024 08:00:00,0.302
15/07/2024 08:15:00,0.302
15/07/2024 08:30:00,0.301
15/07/2024 08:45:00,0.302
15/07/2024 09:00:00,0.301
15/07/2024 09:15:00,0.301
15/07/2024 09:30:00,0.301
15/07/2024 09:45:00,0.303
15/07/2024 10:00:00,0.298
15/07/2024 10:15:00,0.302
15/07/2024 10:30:00,0.301
15/07/2024 10:45:00,0.301
15/07/2024 11:00:00,0.304
15/07/2024 11:15:00,0.303
15/07/2024 11:30:00,0.307
15/07/2024 11:45:00,0.305
15/07/2024 12:00:00,0.306
15/07/2024 12:15:00,0.303
15/07/2024 12:30:00,0.302
15/07/2024 12:45:00,0.304
15/07/2024 13:00:00,0.301
15/07/2024 13:15:00,0.301
15/07/2024 13:30:00,0.296
15/07/2024 13:45:00,0.303
15/07/2024 14:00:00,0.299
15/07/2024 14:15:00,0.3
15/07/2024 14:30:00,0.301
15/07/2024 14:45:00,0.301
15/07/2024 15:00:00,0.3
15/07/2024 15:15:00,0.296
15/07/2024 15:30:00,0.3
15/07/2024 15:45:00,0.3
15/07/2024 16:00:00,0.3
15/07/2024 16:15:00,0.298
15/07/2024 16:30:00,0.302
15/07/2024 16:45:00,0.302
15/07/2024 17:00:00,0.302
15/07/2024 17:15:00,0.301
15/07/2024 17:30:00,0.299
15/07/2024 17:45:00,0.299
15/07/2024 18:00:00,0.299
15/07/2024 18:15:00,0.299
15/07/2024 18:30:00,0.3
15/07/2024 18:45:00,0.3
15/07/2024 19:00:00,0.299
15/07/2024 19:15:00,0.3
15/07/2024 19:30:00,0.3
15/07/2024 19:45:00,0.301
15/07/2024 20:00:00,0.302
15/07/2024 20:15:00,0.303
15/07/2024 20:30:00,0.304
15/07/2024 20:45:00,0.304
15/07/2024 21:00:00,0.304
15/07/2024 21:15:00,0.304
15/07/2024 21:30:00,0.305
15/07/2024 21:45:00,0.305
15/07/2024 22:00:00,0.305
15/07/2024 22:15:00,0.305
15/07/2024 22:30:00,0.306
15/07/2024 22:45:00,0.307
15/07/2024 23:00:00,0.308
15/07/2024 23:15:00,0.31
15/07/2024 23:30:00,0.311
15/07/2024 23:45:00,0.313
16/07/2024 00:00:00,0.317
16/07/2024 00:15:00,0.323
16/07/2024 00:30:00,0.328
16/07/2024 00:45:00,0.331
16/07/2024 01:00:00,0.334
16/07/2024 01:15:00,0.337
16/07/2024 01:30:00,0.339
16/07/2024 01:45:00,0.339
16/07/2024 02:00:00,0.34
16/07/2024 02:15:00,0.34
16/07/2024 02:30:00,0.339
16/07/2024 02:45:00,0.339
16/07/2024 03:00:00,0.338
16/07/2024 03:15:00,0.337
16/07/2024 03:30:00,0.336
16/07/2024 03:45:00,0.336
16/07/2024 04:00:00,0.335
16/07/2024 04:15:00,0.334
16/07/2024 04:30:00,0.333
16/07/2024 04:45:00,0.332
16/07/2024 05:00:00,0.331
16/07/2024 05:15:00,0.331
16/07/2024 05:30:00,0.33
16/07/2024 05:45:00,0.33
16/07/2024 06:00:00,0.328
16/07/2024 06:15:00,0.328
16/07/2024 06:30:00,0.328
16/07/2024 06:45:00,0.327
16/07/2024 07:00:00,0.326
16/07/2024 07:15:00,0.325
16/07/2024 07:30:00,0.325
16/07/2024 07:45:00,0.324
16/07/2024 08:00:00,0.323
16/07/2024 08:15:00,0.322
16/07/2024 08:30:00,0.322
16/07/2024 08:45:00,0.322
16/07/2024 09:00:00,0.321
16/07/2024 09:15:00,0.32
